Terminal Aerodrome Forecast
Issued by NWS

Current Version | Previous Version | Graphics & Text | Print | Product List | Glossary On
Versions: 1 2 3 4 5 6 7 8 9 10 11 12 13 14 15 16 17 18 19
962
FTUS41 KILN 290538
TAFLUK
TAF
KLUK 290538Z 2906/3006 00000KT 5SM BR BKN120
      TEMPO 2908/2910 2SM BR
     FM291100 00000KT P6SM VCSH BKN080
     FM291300 21003KT P6SM FEW040 SCT080
     FM291800 21006KT P6SM VCTS SCT040CB BKN250
     FM292000 21008KT P6SM SCT040 BKN250
     FM292300 22004KT P6SM VCTS BKN050CB
     FM300200 00000KT P6SM SCT050=

USA.gov is the U.S. government's official web portal to all federal, state and local government web resources and services.